TimeEST,TemperatureF,Dew PointF,Humidity,Sea Level PressureIn,VisibilityMPH,Wind Direction,Wind SpeedMPH,Gust SpeedMPH,PrecipitationIn,Events,Conditions,WindDirDegrees,DateUTC
12:15 AM,28.4,26.6,93,29.84,10.0,WNW,6.9,-,N/A,,Overcast,290,2013-02-14 05:15:00
12:55 AM,28.4,26.6,93,29.84,10.0,NW,8.1,-,N/A,,Overcast,310,2013-02-14 05:55:00
1:15 AM,28.4,26.6,93,29.86,7.0,WNW,6.9,-,N/A,,Overcast,300,2013-02-14 06:15:00
1:35 AM,28.4,24.8,86,29.86,10.0,WNW,8.1,-,N/A,,Overcast,290,2013-02-14 06:35:00
1:55 AM,28.4,23.0,80,29.87,10.0,West,8.1,-,N/A,,Overcast,280,2013-02-14 06:55:00
2:15 AM,28.4,21.2,74,29.88,10.0,WNW,4.6,-,N/A,,Overcast,300,2013-02-14 07:15:00
2:35 AM,28.4,19.4,69,29.89,10.0,West,9.2,-,N/A,,Overcast,280,2013-02-14 07:35:00
2:55 AM,28.4,19.4,69,29.90,10.0,WNW,9.2,18.4,N/A,,Overcast,290,2013-02-14 07:55:00
3:15 AM,28.4,19.4,69,29.90,10.0,WNW,6.9,-,N/A,,Overcast,290,2013-02-14 08:15:00
3:35 AM,28.4,19.4,69,29.91,10.0,WNW,9.2,-,N/A,,Overcast,290,2013-02-14 08:35:00
3:55 AM,28.4,19.4,69,29.92,10.0,WNW,8.1,16.1,N/A,,Mostly Cloudy,290,2013-02-14 08:55:00
4:15 AM,26.6,19.4,74,29.92,10.0,WNW,3.5,-,N/A,,Overcast,300,2013-02-14 09:15:00
4:35 AM,26.6,19.4,74,29.93,10.0,NW,8.1,-,N/A,,Overcast,320,2013-02-14 09:35:00
4:55 AM,26.6,19.4,74,29.93,10.0,WNW,4.6,-,N/A,,Overcast,300,2013-02-14 09:55:00
5:15 AM,26.6,19.4,74,29.93,10.0,NW,4.6,-,N/A,,Overcast,310,2013-02-14 10:15:00
5:35 AM,26.6,19.4,74,29.92,10.0,NW,4.6,-,N/A,,Overcast,310,2013-02-14 10:35:00
5:55 AM,26.6,19.4,74,29.92,10.0,NW,3.5,-,N/A,,Scattered Clouds,310,2013-02-14 10:55:00
6:15 AM,26.6,19.4,74,29.93,10.0,Calm,Calm,-,N/A,,Mostly Cloudy,0,2013-02-14 11:15:00
6:35 AM,26.6,19.4,74,29.93,10.0,Calm,Calm,-,N/A,,Overcast,0,2013-02-14 11:35:00
6:55 AM,26.6,19.4,74,29.94,10.0,West,3.5,-,N/A,,Overcast,260,2013-02-14 11:55:00
7:15 AM,26.6,19.4,74,29.95,10.0,West,5.8,-,N/A,,Overcast,270,2013-02-14 12:15:00
7:35 AM,26.6,21.2,80,29.95,10.0,West,4.6,-,N/A,,Overcast,280,2013-02-14 12:35:00
7:55 AM,28.4,21.2,74,29.95,10.0,WNW,4.6,-,N/A,,Overcast,290,2013-02-14 12:55:00
8:15 AM,28.4,21.2,74,29.96,10.0,WNW,3.5,-,N/A,,Overcast,300,2013-02-14 13:15:00
8:35 AM,28.4,21.2,74,29.96,10.0,WNW,4.6,-,N/A,,Overcast,300,2013-02-14 13:35:00
8:55 AM,28.4,21.2,74,29.97,10.0,WNW,4.6,-,N/A,,Overcast,290,2013-02-14 13:55:00
9:15 AM,28.4,21.2,74,29.97,10.0,West,3.5,-,N/A,,Overcast,270,2013-02-14 14:15:00
9:35 AM,28.4,21.2,74,29.97,10.0,WSW,3.5,-,N/A,,Overcast,250,2013-02-14 14:35:00
9:55 AM,28.4,21.2,74,29.98,10.0,WSW,6.9,-,N/A,,Overcast,250,2013-02-14 14:55:00
10:15 AM,28.4,21.2,74,29.98,10.0,Calm,Calm,-,N/A,,Overcast,0,2013-02-14 15:15:00
10:35 AM,30.2,21.2,69,29.98,10.0,SW,4.6,-,N/A,,Overcast,220,2013-02-14 15:35:00
10:55 AM,30.2,21.2,69,29.98,10.0,SSW,4.6,-,N/A,,Overcast,210,2013-02-14 15:55:00
11:15 AM,30.2,21.2,69,29.99,10.0,SSW,4.6,-,N/A,,Overcast,210,2013-02-14 16:15:00
11:35 AM,30.2,23.0,75,30.00,10.0,SW,8.1,-,N/A,,Overcast,220,2013-02-14 16:35:00
11:55 AM,32.0,23.0,69,29.99,10.0,South,3.5,-,N/A,,Overcast,180,2013-02-14 16:55:00
12:15 PM,32.0,23.0,69,29.99,10.0,WSW,6.9,-,N/A,,Overcast,240,2013-02-14 17:15:00
12:35 PM,32.0,23.0,69,29.98,10.0,WSW,8.1,-,N/A,,Overcast,240,2013-02-14 17:35:00
12:55 PM,33.8,23.0,65,29.97,10.0,SSW,3.5,-,N/A,,Mostly Cloudy,210,2013-02-14 17:55:00
1:15 PM,33.8,23.0,65,29.95,10.0,South,4.6,-,N/A,,Scattered Clouds,190,2013-02-14 18:15:00
1:35 PM,33.8,21.2,60,29.95,10.0,WSW,6.9,-,N/A,,Clear,250,2013-02-14 18:35:00
1:55 PM,35.6,21.2,56,29.95,10.0,WSW,6.9,-,N/A,,Scattered Clouds,250,2013-02-14 18:55:00
2:15 PM,35.6,21.2,56,29.95,10.0,South,4.6,-,N/A,,Scattered Clouds,190,2013-02-14 19:15:00
2:35 PM,37.4,21.2,52,29.94,10.0,SSW,6.9,-,N/A,,Scattered Clouds,210,2013-02-14 19:35:00
2:55 PM,37.4,21.2,52,29.93,10.0,SSW,3.5,-,N/A,,Clear,210,2013-02-14 19:55:00
3:15 PM,37.4,21.2,52,29.91,10.0,SW,3.5,-,N/A,,Clear,230,2013-02-14 20:15:00
3:35 PM,39.2,21.2,49,29.91,10.0,SSW,6.9,-,N/A,,Clear,210,2013-02-14 20:35:00
3:55 PM,39.2,19.4,45,29.92,10.0,SW,8.1,-,N/A,,Clear,220,2013-02-14 20:55:00
4:15 PM,41.0,19.4,42,29.92,10.0,SW,11.5,16.1,N/A,,Clear,230,2013-02-14 21:15:00
4:35 PM,41.0,19.4,42,29.92,10.0,SSW,10.4,-,N/A,,Clear,210,2013-02-14 21:35:00
4:55 PM,41.0,19.4,42,29.93,10.0,SW,6.9,-,N/A,,Clear,220,2013-02-14 21:55:00
5:15 PM,41.0,19.4,42,29.93,10.0,WSW,9.2,-,N/A,,Clear,240,2013-02-14 22:15:00
5:35 PM,39.2,19.4,45,29.93,10.0,SW,5.8,-,N/A,,Clear,230,2013-02-14 22:35:00
5:55 PM,37.4,19.4,48,29.94,10.0,WSW,4.6,-,N/A,,Clear,250,2013-02-14 22:55:00
6:15 PM,37.4,19.4,48,29.95,10.0,WSW,4.6,-,N/A,,Clear,250,2013-02-14 23:15:00
6:35 PM,37.4,19.4,48,29.95,10.0,WSW,4.6,-,N/A,,Clear,250,2013-02-14 23:35:00
6:55 PM,37.4,19.4,48,29.96,10.0,West,3.5,-,N/A,,Clear,260,2013-02-14 23:55:00
7:15 PM,35.6,19.4,52,29.96,10.0,WSW,6.9,-,N/A,,Clear,240,2013-02-15 00:15:00
7:35 PM,35.6,21.2,56,29.97,10.0,WSW,5.8,-,N/A,,Clear,250,2013-02-15 00:35:00
7:55 PM,35.6,19.4,52,29.97,10.0,WSW,6.9,-,N/A,,Clear,240,2013-02-15 00:55:00
8:15 PM,35.6,21.2,56,29.97,10.0,West,5.8,-,N/A,,Clear,260,2013-02-15 01:15:00
8:35 PM,35.6,21.2,56,29.97,10.0,West,4.6,-,N/A,,Clear,260,2013-02-15 01:35:00
8:55 PM,33.8,21.2,60,29.97,10.0,Calm,Calm,-,N/A,,Clear,0,2013-02-15 01:55:00
9:15 PM,33.8,21.2,60,29.97,10.0,Calm,Calm,-,N/A,,Clear,0,2013-02-15 02:15:00
9:35 PM,33.8,21.2,60,29.96,10.0,WNW,3.5,-,N/A,,Clear,300,2013-02-15 02:35:00
9:55 PM,33.8,21.2,60,29.96,10.0,Calm,Calm,-,N/A,,Clear,0,2013-02-15 02:55:00
10:15 PM,33.8,21.2,60,29.96,10.0,West,3.5,-,N/A,,Clear,270,2013-02-15 03:15:00
10:35 PM,33.8,23.0,65,29.96,10.0,West,3.5,-,N/A,,Clear,280,2013-02-15 03:35:00
10:55 PM,33.8,21.2,60,29.96,10.0,Calm,Calm,-,N/A,,Clear,0,2013-02-15 03:55:00
11:15 PM,30.2,21.2,69,29.97,10.0,Calm,Calm,-,N/A,,Clear,0,2013-02-15 04:15:00
11:35 PM,28.4,21.2,74,29.97,10.0,Calm,Calm,-,N/A,,Clear,0,2013-02-15 04:35:00
11:55 PM,30.2,21.2,69,29.97,10.0,Calm,Calm,-,N/A,,Clear,0,2013-02-15 04:55:00